Time,TemperatureF,DewpointF,PressureIn,WindDirection,WindDirectionDegrees,WindSpeedMPH,WindSpeedGustMPH,Humidity,HourlyPrecipIn,Conditions,Clouds,dailyrainin,SoftwareType,DateUTC
2013-06-22 11:02:00,78.0,62.0,30.24,SE,127,1.0,2.0,57,0.00,,,0.00,,2013-06-22 15:02:00,
2013-06-22 12:12:00,82.0,61.0,30.24,SSW,207,1.0,3.0,50,0.00,,,0.00,,2013-06-22 16:12:00,
2013-06-22 12:34:00,81.0,61.0,30.24,SSW,196,1.0,3.0,50,0.00,,,0.00,,2013-06-22 16:34:00,
2013-06-22 12:43:00,81.0,61.0,30.24,SW,232,1.0,3.0,50,0.00,,,0.00,,2013-06-22 16:43:00,
2013-06-22 12:52:00,81.0,61.0,30.24,SW,232,1.0,3.0,50,0.00,,,0.00,,2013-06-22 16:52:00,
2013-06-22 13:02:00,83.0,61.0,30.23,South,175,1.0,3.0,48,0.00,,,0.00,,2013-06-22 17:02:00,
2013-06-22 13:34:00,85.0,59.0,30.22,SE,127,3.0,5.0,42,0.00,,,0.00,,2013-06-22 17:34:00,
2013-06-22 13:43:00,85.0,60.0,30.21,ESE,119,2.0,8.0,43,0.00,,,0.00,,2013-06-22 17:43:00,
2013-06-22 13:52:00,85.0,60.0,30.20,East,83,2.0,9.0,43,0.00,,,0.00,,2013-06-22 17:52:00,
2013-06-22 14:02:00,85.0,59.0,30.19,ESE,114,2.0,6.0,42,0.00,,,0.00,,2013-06-22 18:02:00,
2013-06-22 14:12:00,85.0,59.0,30.19,ESE,114,2.0,6.0,42,0.00,,,0.00,,2013-06-22 18:12:00,
2013-06-22 14:23:00,86.0,60.0,30.19,South,181,2.0,5.0,41,0.00,,,0.00,,2013-06-22 18:23:00,
2013-06-22 14:34:00,86.0,60.0,30.19,ESE,105,3.0,7.0,42,0.00,,,0.00,,2013-06-22 18:34:00,
2013-06-22 14:52:00,86.0,62.0,30.20,SSW,202,2.0,7.0,45,0.00,,,0.00,,2013-06-22 18:52:00,
2013-06-22 15:01:00,86.0,62.0,30.19,SSW,211,2.0,6.0,44,0.00,,,0.00,,2013-06-22 19:01:00,
2013-06-22 15:11:00,86.0,62.0,30.19,ESE,116,1.0,5.0,44,0.00,,,0.00,,2013-06-22 19:11:00,
2013-06-22 15:33:00,86.0,65.0,30.19,ESE,108,4.0,8.0,49,0.00,,,0.00,,2013-06-22 19:33:00,
2013-06-22 15:53:00,83.0,65.0,30.18,ESE,115,3.0,9.0,55,0.00,,,0.00,,2013-06-22 19:53:00,
2013-06-22 16:02:00,82.0,63.0,30.17,SSE,161,1.0,7.0,53,0.00,,,0.00,,2013-06-22 20:02:00,
2013-06-22 16:11:00,82.0,63.0,30.17,SSE,161,1.0,7.0,53,0.00,,,0.00,,2013-06-22 20:11:00,
2013-06-22 16:34:00,82.0,63.0,30.16,ESE,104,3.0,7.0,52,0.00,,,0.00,,2013-06-22 20:34:00,
2013-06-22 16:43:00,81.0,62.0,30.16,SE,129,4.0,8.0,53,0.00,,,0.00,,2013-06-22 20:43:00,
2013-06-22 16:53:00,81.0,62.0,30.16,SE,130,2.0,7.0,52,0.00,,,0.00,,2013-06-22 20:53:00,
2013-06-22 17:01:00,81.0,61.0,30.15,ESE,115,3.0,6.0,51,0.00,,,0.00,,2013-06-22 21:01:00,
2013-06-22 17:11:00,81.0,61.0,30.15,ESE,115,3.0,6.0,51,0.00,,,0.00,,2013-06-22 21:11:00,
2013-06-22 17:34:00,78.0,62.0,30.14,ESE,123,1.0,8.0,57,0.00,,,0.00,,2013-06-22 21:34:00,
2013-06-22 17:43:00,79.0,62.0,30.15,ESE,112,3.0,8.0,56,0.00,,,0.00,,2013-06-22 21:43:00,
2013-06-22 17:53:00,78.0,62.0,30.14,ESE,114,4.0,10.0,57,0.00,,,0.00,,2013-06-22 21:53:00,
2013-06-22 18:02:00,78.0,62.0,30.14,ESE,108,5.0,7.0,57,0.00,,,0.00,,2013-06-22 22:02:00,
2013-06-22 18:12:00,78.0,62.0,30.15,ESE,116,3.0,7.0,57,0.00,,,0.00,,2013-06-22 22:12:00,
2013-06-22 18:23:00,78.0,62.0,30.14,ESE,112,2.0,7.0,57,0.00,,,0.00,,2013-06-22 22:23:00,
2013-06-22 18:33:00,77.0,61.0,30.14,SE,125,1.0,6.0,57,0.00,,,0.00,,2013-06-22 22:33:00,
2013-06-22 18:43:00,77.0,61.0,30.14,SE,124,5.0,9.0,57,0.00,,,0.00,,2013-06-22 22:43:00,
2013-06-22 18:52:00,76.0,59.0,30.14,ESE,113,3.0,8.0,56,0.00,,,0.00,,2013-06-22 22:52:00,
2013-06-22 19:02:00,76.0,59.0,30.14,ESE,121,2.0,8.0,56,0.00,,,0.00,,2013-06-22 23:02:00,
2013-06-22 19:11:00,76.0,59.0,30.14,ESE,121,2.0,8.0,56,0.00,,,0.00,,2013-06-22 23:11:00,
2013-06-22 19:22:00,75.0,58.0,30.13,East,101,3.0,7.0,56,0.00,,,0.00,,2013-06-22 23:22:00,
2013-06-22 19:34:00,75.0,58.0,30.13,ESE,117,2.0,9.0,55,0.00,,,0.00,,2013-06-22 23:34:00,
2013-06-22 19:43:00,75.0,58.0,30.13,SSE,154,3.0,7.0,55,0.00,,,0.00,,2013-06-22 23:43:00,
2013-06-22 19:52:00,74.0,57.0,30.13,ESE,107,2.0,8.0,56,0.00,,,0.00,,2013-06-22 23:52:00,
2013-06-22 20:01:00,74.0,57.0,30.13,East,85,3.0,9.0,56,0.00,,,0.00,,2013-06-23 00:01:00,
2013-06-22 20:11:00,74.0,57.0,30.13,East,85,3.0,9.0,56,0.00,,,0.00,,2013-06-23 00:11:00,
2013-06-22 20:34:00,74.0,58.0,30.13,ESE,106,2.0,6.0,58,0.00,,,0.00,,2013-06-23 00:34:00,
2013-06-22 20:42:00,74.0,58.0,30.13,ESE,106,2.0,6.0,58,0.00,,,0.00,,2013-06-23 00:42:00,
2013-06-22 20:53:00,73.0,58.0,30.13,ESE,103,3.0,9.0,59,0.00,,,0.00,,2013-06-23 00:53:00,
2013-06-22 21:01:00,73.0,58.0,30.13,ESE,104,2.0,6.0,59,0.00,,,0.00,,2013-06-23 01:01:00,
2013-06-22 21:12:00,73.0,57.0,30.13,ESE,105,4.0,10.0,57,0.00,,,0.00,,2013-06-23 01:12:00,
2013-06-22 21:22:00,73.0,57.0,30.13,ESE,105,4.0,10.0,57,0.00,,,0.00,,2013-06-23 01:22:00,
2013-06-22 21:32:00,73.0,57.0,30.13,ESE,105,4.0,10.0,57,0.00,,,0.00,,2013-06-23 01:32:00,
2013-06-22 21:42:00,73.0,55.0,30.15,ESE,107,2.0,7.0,54,0.00,,,0.00,,2013-06-23 01:42:00,
2013-06-22 21:52:00,73.0,55.0,30.15,ESE,107,2.0,7.0,54,0.00,,,0.00,,2013-06-23 01:52:00,
2013-06-22 22:01:00,73.0,55.0,30.15,ESE,107,2.0,7.0,54,0.00,,,0.00,,2013-06-23 02:01:00,
2013-06-22 22:11:00,73.0,55.0,30.15,ESE,107,2.0,7.0,54,0.00,,,0.00,,2013-06-23 02:11:00,
2013-06-22 22:21:00,73.0,55.0,30.15,ESE,107,2.0,7.0,54,0.00,,,0.00,,2013-06-23 02:21:00,
2013-06-22 23:11:00,73.0,55.0,30.15,SSE,148,1.0,3.0,53,0.00,,,0.00,,2013-06-23 03:11:00,
2013-06-22 23:21:00,73.0,55.0,30.15,SSE,148,1.0,3.0,53,0.00,,,0.00,,2013-06-23 03:21:00,
2013-06-22 23:31:00,73.0,55.0,30.15,SSE,148,1.0,3.0,53,0.00,,,0.00,,2013-06-23 03:31:00,
2013-06-22 23:41:00,73.0,55.0,30.15,SSE,148,1.0,3.0,53,0.00,,,0.00,,2013-06-23 03:41:00,
2013-06-22 23:50:00,73.0,59.0,30.16,SE,139,1.0,5.0,61,0.00,,,0.00,,2013-06-23 03:50:00,
2013-06-22 23:51:00,73.0,55.0,30.15,SSE,148,1.0,3.0,53,0.00,,,0.00,,2013-06-23 03:51:00,